Miscellaneous Local Product
Issued by NWS Hastings, NE

Home | Current Version | Previous Version | Graphics & Text | Print | Product List | Glossary On
Versions: 1 2 3 4 5 6 7 8 9 10 11 12 13 14 15 16 17 18 19 20 21 22 23 24 25 26 27 28 29 30 31 32 33 34 35 36 37 38 39 40 41 42 43 44 45 46 47 48 49 50
000
AXUS43 KGID 051902
MISGRI

GID CWA HOURLY WEATHER ROUNDUP
NATIONAL WEATHER SERVICE HASTINGS NE
100 PM CST THU MAR 05 2015

NOTE: "FAIR" INDICATES FEW OR NO CLOUDS BELOW 12,000 FEET WITH NO
SIGNIFICANT WEATHER AND/OR OBSTRUCTIONS TO VISIBILITY.

...SOUTH CENTRAL NEBRASKA...

CITY           SKY/WX    TMP DP  RH WIND       PRES   REMARKS
GRAND ISLAND   NOT AVBL
HASTINGS       NOT AVBL
KEARNEY        SUNNY     30  10  43 S15       30.36F WCI  19
ORD            NOT AVBL
YORK           SUNNY     28   7  40 SW15      30.42F WCI  17
AURORA         SUNNY     30   6  37 S16       30.39F WCI  18
LEXINGTON      SUNNY     34  11  39 SW14      30.31F WCI  24
HOLDREGE       SUNNY     32  13  44 S10       30.34F WCI  24
HEBRON         SUNNY     31   1  28 S10       30.45F WCI  22

...NEBRASKA PANHANDLE...

CITY           SKY/WX    TMP DP  RH WIND       PRES   REMARKS
CHADRON        NOT AVBL
ALLIANCE       NOT AVBL
SCOTTSBLUFF    NOT AVBL
SIDNEY         NOT AVBL

...WESTERN AND NORTH CENTRAL NEBRASKA...

CITY           SKY/WX    TMP DP  RH WIND       PRES   REMARKS
VALENTINE      NOT AVBL
AINSWORTH      SUNNY     35   4  27 W10G16    30.22F WCI  28
ONEILL         SUNNY     32   4  31 S15G22    30.30F WCI  22
BROKEN BOW     NOT AVBL
NORTH PLATTE   NOT AVBL
MCCOOK         NOT AVBL

...EASTERN NEBRASKA...

CITY           SKY/WX    TMP DP  RH WIND       PRES   REMARKS
NORFOLK        SUNNY     29   2  31 S18G24    30.38F WCI  16
COLUMBUS       SUNNY     27   1  33 S14       30.45F WCI  15
ALBION         SUNNY     30   2  30 S15G23    30.36F WCI  19
OMAHA EPPLEY   NOT AVBL
OFFUTT AFB     SUNNY     23   0  36 S3        30.50F
MILLARD        SUNNY     24   1  36 S5        30.49F WCI  19
LINCOLN        NOT AVBL
NEBRASKA CITY  SUNNY     24  -6  27 S7        30.50F WCI  16
BEATRICE       SUNNY     28   3  34 S12       30.47F WCI  18
FALLS CITY     NOT AVBL

...NORTHERN KANSAS...

CITY           SKY/WX    TMP DP  RH WIND       PRES   REMARKS
GOODLAND       NOT AVBL
HILL CITY      NOT AVBL
NORTON         CLEAR     39   3  22 S10       30.33  WCI  32
PHILLIPSBURG   SUNNY     37  10  32 S5        30.39F WCI  34
SMITH CENTER   SUNNY     32   9  37 S7        30.40F WCI  26
BELOIT         SUNNY     36   7  30 S8        30.43F WCI  29
HAYS           SUNNY     39   9  28 SW10      30.40F WCI  32
RUSSELL        NOT AVBL
CONCORDIA      NOT AVBL



USA.gov is the U.S. government's official web portal to all federal, state and local government web resources and services.